Погода в Сивыс-Ях

Россия / Ханты-Мансийский автономный округ - Югра     60°09′45″N   71°42′23″E
темп.,
°C
ветер,
м/с
пор.,
м/с
влажн.,
%
обл.,
%
осадки,
мм/ч
давл.,
гПа
погр.,
м
15 августа, пн
пн1523:00+11сз41065100 0.1 1011891
02:00+10сз5106798 0.1 10121125
05:00+9сз41070100 0.1 1013932
08:00+11сз596237 0.0 10141331
11:00+12сз4954100 0.1 10151949
14:00+12сз4949100 0.0 10162083
17:00+14ссз384341 0.0 10161684
20:00+12сз495826 0.0 1016723
16 августа, вт
вт1623:00+7зсз28825 0.0 1016168
02:00+9з3972100 0.0 1016264
05:00+9зюз387092 0.0 1014205
08:00+11з31072100 0.1 1013521
11:00+14ссз586793 0.9 10131386
14:00+15ссз595631 1.2 10131676
17:00+13ссз59675 2.4 10141436
20:00+9ссз497558 0.1 1014584
17 августа, ср
ср1723:00+7сз3108662 0.1 1014462
02:00+8ссз51088100 0.0 1014731
05:00+8с4108783 0.6 1015914
08:00+9ссз597590 0.0 1016766
11:00+11с595397 0.1 10171791
14:00+11с4952100 0.0 10171855
17:00+11с4854100 0.0 10181430
20:00+8с386099 0.0 1018537
18 августа, чт
чт1823:00+6сз31077100 0.0 1018290
02:00+7с4872100 0.0 1018941
05:00+6ссз4894100 0.6 10191052
08:00+6ссз41092100 0.3 1019707
11:00+8ссз3885100 0.3 1021714
14:00+11ссз4675100 0.0 1021971
17:00+12ссз4770100 0.0 10211012
20:00+10сз498087 0.0 1022524
19 августа, пт
пт1923:00+10сз4118198 0.0 1021468
02:00+8сз398786 0.0 1021290
05:00+8ссз4118422 0.0 1022413
08:00+12ссз59595 0.0 1022604
11:00+16ссз57465 0.0 10221348
14:00+18ссз56395 0.0 10221774
17:00+18ссз46375 0.0 10221743
20:00+11ссз226150 0.0 102210